星链-6042 (STARLINK-6042 )

导读

STARLINK-6042是美国SpaceX公司星链互联网卫星星座的一员,于2023年5月31日发射升空。星链计划旨在构建低轨卫星互联网星座,为全球提供高速宽带网络覆盖,该卫星入轨后将和其他星链卫星协同,补充完善星座网络容量与覆盖范围,提升全球偏远及传统网络覆盖薄弱区域的互联网服务能力。

Basic Information
目录编号:
56808
目录名称:
STARLINK-6042
国际标识:
2023-078AT
轨道中心:
EARTH
卫星名称:
星链-6042
卫星全名:
星链-6042 (STARLINK-6042 )
卫星状态:
在轨 (已飞行1111 天)
发射日期:
2023-05-31 UTC
国别 :
美国 (US)
星等 :
--
Orbit Information
数据来源 国际轨道数据 AOE轨道数据
星历时间 2026-06-14T16:04:14+0800
16小时前
查看轨道信息
2026-06-14T23:00:00+0800
9小时前
查看轨道信息
半长轴 6950.183km 6950.17km
偏心率 0.0002957 0.0003045
轨道倾角 70.000° 70.001°
近地点辐角 268.107° 270.858°
升交点赤经 30.861° 30.132°
平近点角 91.975° 206.185°
近地点 569.99km 569.916km
远地点 574.102km 574.15km
周期 96.107分钟 96.107分钟
每日圈数 14.983332 14.983375
Detailed Information
固有亮度:
5
最大亮度:
2.5
卫星平台:
Starlink v1.5
覆盖范围:
全球
运营商:
太空探索技术公司
运营商所在国:
美国
制造商(研发单位):
太空探索技术公司
制造商所在国:
美国
使用方式:
暂无
Satellite Introduction
星链(Starlink)计划是由太空探索技术公司(SpaceX)提出的一个巨型低轨卫星互联网星座项目,计划在2019年至2024年间在太空搭建由约1.2万颗卫星组成的“星链”网络,其中1584颗将部署在地球上空550千米处的近地轨道,并从2020年开始工作。该卫星仍在工作。
2D Orbit Map
3D Orbit Map
Orbit Altitude Analysis Chart
Orbit Inclination Analysis Chart
Orbit Comprehensive Analysis Chart
View Comprehensive Chart